Regional Weather Roundup
Issued by NWS

Home | Current Version | Previous Version | Text Only | Print | Product List | Glossary Off
Versions: 1 2 3 4 5 6 7 8 9 10 11 12 13 14 15 16 17 18 19 20 21 22 23 24 25 26 27 28 29 30 31 32 33 34 35 36 37 38 39 40 41 42 43 44 45 46 47 48 49 50

000
ASUS43 KTOP 242259
RWRKS

WEATHER ROUNDUP FOR KANSAS
NATIONAL WEATHER SERVICE GOODLAND KS
500 PM CST WED DEC 24 2014

NOTE:  "FAIR" INDICATES FEW OR NO CLOUDS BELOW 12,000 FEET WITH NO
SIGNIFICANT WEATHER AND/OR OBSTRUCTIONS TO VISIBILITY.

KSZ001>006-013>018-027>032-041>047-250000-
NORTHWEST KANSAS

CITY           SKY/WX    TMP DP  RH WIND       PRES   REMARKS
GOODLAND       CLEAR     40  20  44 SW15      29.71F WCI  32
HAYS           CLEAR     43  19  39 SW13      29.79S
HILL CITY      PTCLDY    45  13  27 SW8       29.76S
RUSSELL        CLEAR     41  22  46 SW10      29.78S
$$

KSZ061>065-074>080-084>089-250000-
SOUTHWEST KANSAS

CITY           SKY/WX    TMP DP  RH WIND       PRES   REMARKS
DODGE CITY     CLEAR     42  16  34 SW10      29.82F
ELKHART          N/A     47  10  22 SW8         N/A
GARDEN CITY    CLEAR     43  15  32 SW10      29.79F
GREAT BEND     CLEAR     41  21  45 W10       29.82R
LIBERAL        CLEAR     46  12  25 SW10      29.83F
$$

KSZ066>073-081>083-090>101-250000-
SOUTHEAST KANSAS

CITY           SKY/WX    TMP DP  RH WIND       PRES   REMARKS
CHANUTE        CLOUDY    37  30  75 W9        29.89R
COFFEYVILLE    CLOUDY    39  29  67 W6        29.91R
HUTCHINSON     CLEAR     43  22  43 W9        29.83S
NEWTON         CLEAR     39  25  56 W9        29.85F
PARSONS        CLOUDY    38  30  73 W7        29.91R
WICHITA INTL   PTCLDY    43  24  47 W9        29.85F
WICHITA JABRA  CLEAR     40  26  57 W7        29.84F
WINFIELD       CLEAR     42  31  64 W8        29.89S
$$

KSZ007>012-019>026-033>040-048>060-102>105-250000-
NORTHEAST KANSAS

CITY           SKY/WX    TMP DP  RH WIND       PRES   REMARKS
CONCORDIA      CLEAR     37  26  64 SW7       29.78F
EMPORIA        CLOUDY    34  29  82 W8        29.85F
LAWRENCE       CLOUDY    35  28  75 W8        29.85S
MANHATTAN      CLEAR     33  28  81 SW6       29.83F
OLATHE IND     CLOUDY    34  30  85 W6        29.84S
OLATHE EXE     CLOUDY    35  30  82 W8        29.82S
SALINA         CLEAR     41  25  53 W6        29.81F
TOPEKA BILLARD CLOUDY    36  30  79 VRB3      29.84F
TOPEKA FORBES  CLOUDY    36  29  75 W7        29.83F
$$



USA.gov is the U.S. government's official web portal to all federal, state and local government web resources and services.